[[{"header":{"parameterUnit":"m.s-1","parameterCategory":1,"la1":30.2991,"la2":30.254,"lo1":-89.0895,"lo2":-89.0444,"dy":0.0017,"dx":0.0017,"nx":28,"ny":28,"refTime":"2024-08-02T09:00:00:Z","depth":0,"parameterNumber":2,"parameterNumberName":"U-component_of_WINDS"},"data":[0,0,0,0,0,0,0,0,0,0,0,0,0,0,0,0,0,0,0,0,0,0,0,0,0,0,0,0,0,0,0,0,0,0,0,0,0,0,0,0,0,0,0,0,0,0,0,0,0,0,0,0,0,0,0,0,0,0,1.6751,1.6752,0,1.6801,1.6802,1.6802,1.6815,1.6814,1.6814,1.6814,1.6868,1.687,1.6872,0,0,0,0,0,0,0,0,0,0,0,0,0,1.667,1.6672,1.6751,1.6752,1.6752,1.6801,1.6802,1.6803,1.6815,1.6814,1.6814,1.6813,1.6867,1.687,1.6872,0,0,0,0,0,0,0,0,0,0,0,0,0,1.6712,1.6672,1.6751,1.6764,1.6766,1.6801,1.6802,1.6803,1.6815,1.6814,1.6814,1.6813,1.6867,1.6869,1.6872,1.6899,0,0,1.688,1.6881,0,0,0,0,0,0,0,0,1.6709,1.6715,1.6762,1.6763,1.6765,1.6801,1.6794,1.6835,1.6815,1.6796,1.6814,1.6813,1.6846,1.6851,1.6861,1.6901,1.6904,1.688,1.6882,1.6883,1.6884,0,0,0,0,0,0,0,1.6706,1.6713,1.6771,1.6762,1.6764,1.6769,1.6774,1.6801,1.6824,1.6798,1.6799,1.6804,1.6847,1.6859,1.6863,1.6904,1.688,1.6883,1.6884,1.6885,1.6973,1.6974,0,0,0,0,0,0,1.6701,1.671,1.6769,1.6773,1.6735,1.6771,1.6777,1.679,1.6823,1.6828,1.6805,1.6805,1.6854,1.686,1.6865,1.6901,1.6883,1.6886,1.6887,1.6972,1.6973,1.6974,0,0,0,0,0,0,1.6699,1.6706,1.6767,1.6742,1.675,1.6773,1.6788,1.6791,1.6803,1.6829,1.6833,1.6812,1.6854,1.6861,1.6891,1.6902,1.6887,1.6889,1.6971,1.6972,1.6973,1.6971,0,0,0,0,0,0,1.6697,1.6705,1.6714,1.6742,1.6751,1.6791,1.6788,1.6793,1.6807,1.6807,1.6837,1.6841,1.6854,1.6887,1.6893,1.6906,1.6891,1.697,1.6972,1.6973,1.697,1.6972,1.6973,0,0,0,0,0,1.6694,1.6711,1.6714,1.6721,1.6763,1.6792,1.6797,1.6811,1.6808,1.6818,1.6835,1.684,1.69,1.689,1.6897,1.6911,1.697,1.6971,1.6973,1.6969,1.6971,1.6973,0,0,0,0,0,0,1.6684,1.6715,1.6719,1.6745,1.6766,1.6793,1.6807,1.6812,1.6835,1.6834,1.6852,1.6859,1.6888,1.6902,1.689,1.694,1.6935,1.6938,1.693,1.6932,1.6933,1.693,1.6893,0,0,0,0,0,1.6686,1.6705,1.6731,1.6753,1.6763,1.6783,1.6796,1.6805,1.6828,1.6836,1.6856,1.6878,1.6902,1.6918,1.6941,1.6972,1.698,1.6986,1.6987,1.6988,1.6991,1.7012,1.7015,1.6979,1.6979,1.6979,0,0,1.6688,1.6707,1.6718,1.6751,1.6768,1.679,1.679,1.6812,1.683,1.684,1.687,1.6885,1.6911,1.6943,1.6957,1.6956,1.7003,1.699,1.6991,1.6993,1.7014,1.7017,1.702,1.698,1.698,1.698,0,0,1.6704,1.6719,1.674,1.6757,1.6783,1.6797,1.6802,1.6829,1.684,1.687,1.6879,1.6901,1.6941,1.6961,1.6976,1.7003,1.7009,1.701,1.7018,1.7038,1.7041,1.7044,1.7056,1.706,1.7012,1.7012,1.7012,0,1.6704,1.6735,1.675,1.6773,1.6788,1.6799,1.6821,1.6838,1.687,1.6882,1.6879,1.6932,1.6951,1.6988,1.6995,1.7006,1.7015,1.7007,1.7039,1.7042,1.7045,1.7057,1.7061,1.7013,1.7013,1.7013,1.7013,0,1.6736,1.6758,1.6772,1.6803,1.682,1.6842,1.6862,1.6878,1.6887,1.6902,1.6935,1.6957,1.6987,1.6997,1.7005,1.7036,1.7035,1.7035,1.7031,1.7048,1.706,1.7064,1.7013,1.7013,1.7013,1.7013,0,0,1.6745,1.6786,1.6791,1.6806,1.6837,1.6855,1.688,1.6909,1.6923,1.6946,1.6969,1.7004,1.7006,1.7024,1.7035,1.7052,1.7075,1.7051,1.7052,1.7057,1.7115,1.7115,1.712,1.708,1.7081,1.7081,1.7113,0,1.6766,1.6808,1.6824,1.686,1.6882,1.6895,1.6917,1.6939,1.6954,1.6978,1.6995,1.7021,1.702,1.7031,1.7049,1.7069,1.7088,1.7066,1.7103,1.7104,1.7097,1.7125,1.7125,1.7153,1.7118,1.7118,1.7119,0,1.6795,1.6818,1.6857,1.6887,1.6898,1.6917,1.6946,1.6967,1.6994,1.7005,1.7026,1.7036,1.7065,1.7059,1.7101,1.7086,1.7102,1.7115,1.7116,1.7121,1.7113,1.7132,1.7163,1.7168,1.7126,1.7125,1.7125,0,1.68,1.6842,1.6871,1.6883,1.6919,1.6933,1.6949,1.6976,1.6993,1.702,1.7032,1.7061,1.7078,1.7101,1.7121,1.7114,1.7162,1.7157,1.7174,1.7173,1.7183,1.7183,1.7219,1.7192,1.7192,1.7192,1.7192,0,1.6822,1.6845,1.6874,1.6892,1.692,1.6938,1.6966,1.6983,1.7007,1.7031,1.7043,1.7065,1.7089,1.7115,1.7131,1.7165,1.7172,1.7183,1.7187,1.7182,1.7181,1.7194,1.7193,1.7193,1.7193,1.7192,1.7192,0,1.6832,1.6852,1.6885,1.6917,1.6926,1.6945,1.6974,1.6993,1.7011,1.704,1.7048,1.7076,1.7107,1.7129,1.717,1.7181,1.7218,1.7221,1.7209,1.7211,1.7228,1.7226,1.7274,1.7282,1.7248,1.7249,1.7249,0,1.6845,1.6863,1.6898,1.6915,1.6931,1.6956,1.6975,1.6995,1.7014,1.7049,1.7065,1.7097,1.7124,1.7175,1.7199,1.7232,1.7237,1.7251,1.7241,1.7237,1.7239,1.7238,1.7242,1.7253,1.7253,1.7253,1.7253,0,1.6866,1.6876,1.6901,1.6931,1.6953,1.6977,1.7002,1.7015,1.7041,1.7062,1.7094,1.7115,1.7158,1.7191,1.7226,1.7245,1.7255,1.7256,1.7262,1.7258,1.7251,1.7257,1.7214,1.7255,1.7255,1.7255,1.7255,1.7255,1.6879,1.6897,1.6926,1.6955,1.6976,1.7,1.702,1.7041,1.7068,1.7104,1.7115,1.7149,1.718,1.7228,1.7248,1.7277,1.7276,1.7284,1.7286,1.7288,1.7289,1.7246,1.7283,1.7283,1.7283,1.7283,1.7283,0,1.6902,1.6922,1.6948,1.6983,1.7007,1.7014,1.7043,1.7063,1.7093,1.712,1.7147,1.7186,1.7219,1.7248,1.7283,1.7301,1.7307,1.731,1.7309,1.7314,1.7287,1.7279,1.7305,1.7305,1.7305,1.7305,1.7305,1.7305,1.6917,1.695,1.6963,1.7008,1.7028,1.7061,1.7078,1.7101,1.7123,1.7166,1.7194,1.7212,1.7241,1.7279,1.7311,1.7319,1.7332,1.7335,1.7344,1.7318,1.7315,1.7313,1.7306,1.7337,1.7337,1.7369,1.7369,1.7369]},{"header":{"parameterUnit":"m.s-1","parameterCategory":1,"la1":30.2991,"la2":30.254,"lo1":-89.0895,"lo2":-89.0444,"dy":0.0017,"dx":0.0017,"nx":28,"ny":28,"refTime":"2024-08-02T09:00:00:Z","depth":0,"parameterNumber":3,"parameterNumberName":"V-component_of_WINDS"},"data":[0,0,0,0,0,0,0,0,0,0,0,0,0,0,0,0,0,0,0,0,0,0,0,0,0,0,0,0,0,0,0,0,0,0,0,0,0,0,0,0,0,0,0,0,0,0,0,0,0,0,0,0,0,0,0,0,0,0,1.0787,1.0788,0,1.0921,1.0923,1.0924,1.0945,1.0944,1.0943,1.0942,1.1078,1.1083,1.1088,0,0,0,0,0,0,0,0,0,0,0,0,0,1.0543,1.0548,1.0787,1.0788,1.079,1.0921,1.0923,1.0925,1.0945,1.0944,1.0943,1.0941,1.1077,1.1082,1.1088,0,0,0,0,0,0,0,0,0,0,0,0,0,1.066,1.0549,1.0786,1.0816,1.082,1.0921,1.0923,1.0925,1.0946,1.0944,1.0942,1.0941,1.1075,1.1082,1.1089,1.1169,0,0,1.1111,1.1114,0,0,0,0,0,0,0,0,1.0654,1.0669,1.081,1.0814,1.0819,1.0915,1.0887,1.1007,1.0946,1.0898,1.0942,1.094,1.1025,1.1036,1.1065,1.1175,1.1181,1.1111,1.1116,1.1119,1.1121,0,0,0,0,0,0,0,1.0646,1.0664,1.084,1.0812,1.0818,1.0821,1.0836,1.091,1.097,1.0902,1.0904,1.092,1.1027,1.1059,1.1069,1.1183,1.1111,1.1117,1.1122,1.1125,1.136,1.1361,0,0,0,0,0,0,1.0633,1.0657,1.0836,1.0844,1.073,1.0827,1.0844,1.0886,1.0969,1.098,1.0921,1.092,1.1047,1.106,1.1074,1.117,1.1119,1.1125,1.1129,1.1358,1.136,1.1362,0,0,0,0,0,0,1.0627,1.0648,1.083,1.0751,1.0774,1.0833,1.088,1.0889,1.0921,1.0984,1.0994,1.0942,1.1046,1.1064,1.1144,1.1175,1.1128,1.1135,1.1355,1.1358,1.1361,1.1364,0,0,0,0,0,0,1.062,1.0646,1.0679,1.0752,1.0779,1.09,1.0882,1.0893,1.0933,1.0933,1.1006,1.1017,1.1046,1.1133,1.1151,1.1184,1.114,1.1353,1.1357,1.136,1.1361,1.1366,1.1371,0,0,0,0,0,1.0611,1.0675,1.068,1.0702,1.082,1.0901,1.0917,1.095,1.0936,1.0967,1.1007,1.1014,1.1168,1.1141,1.1161,1.1197,1.1351,1.1356,1.136,1.1359,1.1365,1.1371,0,0,0,0,0,0,1.0604,1.0685,1.0692,1.0781,1.0834,1.0905,1.0946,1.0956,1.1015,1.1012,1.105,1.1067,1.1144,1.1179,1.1147,1.1276,1.1258,1.1267,1.125,1.1257,1.1262,1.1251,1.1146,0,0,0,0,0,1.0613,1.0673,1.074,1.0812,1.0838,1.0887,1.0924,1.0945,1.1001,1.1024,1.107,1.1123,1.1183,1.1222,1.1282,1.1366,1.138,1.14,1.1405,1.1408,1.1415,1.1458,1.1467,1.1377,1.1377,1.1377,0,0,1.0632,1.0683,1.0719,1.0812,1.0855,1.0915,1.0906,1.0971,1.1014,1.1033,1.1111,1.1146,1.1208,1.129,1.1328,1.1321,1.1443,1.1414,1.1416,1.1421,1.1464,1.1472,1.1479,1.138,1.1379,1.1379,0,0,1.0696,1.0742,1.0805,1.0848,1.0914,1.0946,1.0961,1.1029,1.1053,1.1132,1.1146,1.1198,1.1302,1.1344,1.138,1.1455,1.1463,1.1473,1.1498,1.154,1.1547,1.1553,1.1577,1.1586,1.148,1.148,1.148,0,1.0711,1.0802,1.0836,1.0899,1.0938,1.0957,1.1019,1.1059,1.1141,1.1166,1.1157,1.1285,1.1329,1.1418,1.1436,1.1465,1.1481,1.1465,1.1543,1.155,1.1557,1.158,1.1589,1.1481,1.1481,1.1481,1.148,0,1.0816,1.0878,1.0921,1.0998,1.1042,1.1104,1.1146,1.1186,1.1201,1.1233,1.1311,1.1363,1.1431,1.1454,1.1471,1.1545,1.1538,1.1536,1.1519,1.1565,1.1588,1.1597,1.1482,1.1481,1.1481,1.1481,0,0,1.0881,1.0974,1.0989,1.1022,1.1094,1.1142,1.1204,1.127,1.1302,1.1357,1.1407,1.1493,1.149,1.153,1.1551,1.1588,1.164,1.158,1.1582,1.1587,1.1721,1.172,1.1731,1.1645,1.1647,1.1649,1.1714,0,1.0952,1.1063,1.1093,1.1187,1.1243,1.126,1.1313,1.1362,1.1392,1.1443,1.1476,1.1535,1.1528,1.1552,1.1589,1.1626,1.1667,1.1621,1.1691,1.1693,1.1673,1.1743,1.1744,1.1804,1.1724,1.1725,1.1726,0,1.105,1.1105,1.1203,1.1264,1.1289,1.1337,1.1398,1.1447,1.1501,1.152,1.1563,1.158,1.1642,1.1621,1.1706,1.1674,1.1704,1.1725,1.1728,1.1735,1.1711,1.1749,1.1824,1.1832,1.1741,1.174,1.1739,0,1.1084,1.1183,1.1254,1.1282,1.1356,1.1388,1.142,1.1473,1.1509,1.1562,1.1585,1.1645,1.1677,1.1722,1.1753,1.1736,1.1833,1.1817,1.1849,1.1848,1.1868,1.1866,1.1947,1.189,1.189,1.189,1.189,0,1.1159,1.1218,1.1269,1.1313,1.1378,1.1411,1.1475,1.1507,1.1553,1.1601,1.162,1.1664,1.1704,1.1753,1.1778,1.1841,1.1857,1.1872,1.1878,1.187,1.1867,1.1889,1.1885,1.1892,1.1892,1.1891,1.1891,0,1.1208,1.1246,1.1323,1.1386,1.1402,1.1447,1.15,1.1541,1.1571,1.1632,1.1648,1.1695,1.1753,1.1789,1.1863,1.1879,1.1949,1.1954,1.1931,1.1933,1.1962,1.1958,1.2058,1.2072,1.2008,1.2008,1.2009,0,1.1253,1.1298,1.1365,1.1398,1.143,1.1485,1.1521,1.1554,1.1592,1.1654,1.1687,1.1747,1.1796,1.1888,1.1927,1.1983,1.1988,1.2019,1.1997,1.1986,1.1986,1.1982,1.1985,1.2023,1.2023,1.2024,1.2024,0,1.1327,1.1342,1.1395,1.1453,1.1496,1.1543,1.159,1.1616,1.1657,1.1697,1.1757,1.1795,1.1869,1.1927,1.1985,1.2016,1.2026,1.2031,1.2041,1.2032,1.2016,1.2022,1.1939,1.2028,1.2028,1.2028,1.2027,1.2027,1.1374,1.1414,1.1465,1.1522,1.1561,1.1603,1.1644,1.1678,1.1728,1.1792,1.1808,1.1869,1.1918,1.1998,1.203,1.2077,1.2072,1.2087,1.2091,1.2094,1.2093,1.2009,1.2088,1.2088,1.2088,1.2088,1.2088,0,1.1447,1.148,1.1532,1.1596,1.164,1.1645,1.1697,1.1732,1.1786,1.1831,1.1879,1.1945,1.2,1.2042,1.2098,1.2127,1.2133,1.2141,1.2138,1.2144,1.2095,1.208,1.2135,1.2135,1.2135,1.2135,1.2135,1.2135,1.149,1.1556,1.1577,1.1661,1.1694,1.1754,1.1782,1.182,1.1856,1.1929,1.1975,1.2002,1.2045,1.2104,1.2153,1.2164,1.2183,1.2189,1.22,1.2154,1.2148,1.2143,1.2129,1.2193,1.2193,1.2245,1.2246,1.2246]}]]